owner,sensor,date,latitude,longitude,vertical_datum,direction_of_sea_water_velocity,sea_water_speed,upward_sea_water_velocity,qcFlag 
TABS,ioos:station:wmo:42045:1,2017-12-01T00:00:00Z,26.2168,-96.4998,2.0,189.5190178,18.20062087,-99999.0,'11111222,11111222,99999999' 
TABS,ioos:station:wmo:42045:1,2017-12-01T00:30:00Z,26.2168,-96.4998,2.0,178.4378412,19.07708835,-99999.0,'11111222,11111222,99999999' 
TABS,ioos:station:wmo:42045:1,2017-12-01T01:00:00Z,26.2168,-96.4998,2.0,185.4621961,20.90493243,-99999.0,'11111222,11111222,99999999' 
TABS,ioos:station:wmo:42045:1,2017-12-01T01:30:00Z,26.2168,-96.4998,2.0,186.9928702,18.31625781,-99999.0,'11111222,11111222,99999999' 
TABS,ioos:station:wmo:42045:1,2017-12-01T02:00:00Z,26.2168,-96.4998,2.0,186.9197752,17.67878389,-99999.0,'11111222,11111222,99999999' 
TABS,ioos:station:wmo:42045:1,2017-12-01T02:30:00Z,26.2168,-96.4998,2.0,189.1486211,16.2264229,-99999.0,'11111222,11111222,99999999' 
TABS,ioos:station:wmo:42045:1,2017-12-01T03:00:00Z,26.2168,-96.4998,2.0,193.4590909,14.69355301,-99999.0,'11111222,11111222,99999999' 
TABS,ioos:station:wmo:42045:1,2017-12-01T03:30:00Z,26.2168,-96.4998,2.0,196.5056705,13.05812008,-99999.0,'11111222,11111222,99999999' 
TABS,ioos:station:wmo:42045:1,2017-12-01T04:00:00Z,26.2168,-96.4998,2.0,191.0165735,16.48377687,-99999.0,'11111222,11111222,99999999' 
TABS,ioos:station:wmo:42045:1,2017-12-01T04:30:00Z,26.2168,-96.4998,2.0,201.9089309,11.84552658,-99999.0,'11111222,11111222,99999999' 
TABS,ioos:station:wmo:42045:1,2017-12-01T05:00:00Z,26.2168,-96.4998,2.0,198.0065192,15.65687389,-99999.0,'11111222,11111222,99999999' 
TABS,ioos:station:wmo:42045:1,2017-12-01T05:30:00Z,26.2168,-96.4998,2.0,201.9935068,15.48707848,-99999.0,'11111222,11111222,99999999' 
TABS,ioos:station:wmo:42045:1,2017-12-01T06:00:00Z,26.2168,-96.4998,2.0,200.4450834,15.1439823,-99999.0,'11111222,11111222,99999999' 
TABS,ioos:station:wmo:42045:1,2017-12-01T06:30:00Z,26.2168,-96.4998,2.0,198.3708205,14.18282412,-99999.0,'11111222,11111222,99999999' 
TABS,ioos:station:wmo:42045:1,2017-12-01T07:00:00Z,26.2168,-96.4998,2.0,204.1019677,9.574742816,-99999.0,'11133222,11111222,99999999' 
TABS,ioos:station:wmo:42045:1,2017-12-01T07:30:00Z,26.2168,-96.4998,2.0,200.1954897,8.747828302,-99999.0,'11133222,11111222,99999999' 
TABS,ioos:station:wmo:42045:1,2017-12-01T08:00:00Z,26.2168,-96.4998,2.0,199.1679328,10.87280093,-99999.0,'11111222,11111222,99999999' 
TABS,ioos:station:wmo:42045:1,2017-12-01T08:30:00Z,26.2168,-96.4998,2.0,191.8447089,9.451248595,-99999.0,'11133222,11111222,99999999' 
TABS,ioos:station:wmo:42045:1,2017-12-01T09:00:00Z,26.2168,-96.4998,2.0,181.5597429,9.183403509,-99999.0,'11133222,11111222,99999999' 
TABS,ioos:station:wmo:42045:1,2017-12-01T09:30:00Z,26.2168,-96.4998,2.0,186.8449053,9.648777125,-99999.0,'11133222,11111222,99999999' 
TABS,ioos:station:wmo:42045:1,2017-12-01T10:00:00Z,26.2168,-96.4998,2.0,171.7038155,10.25733396,-99999.0,'11111222,11111222,99999999' 
TABS,ioos:station:wmo:42045:1,2017-12-01T10:30:00Z,26.2168,-96.4998,2.0,181.660068,10.35434691,-99999.0,'11111222,11111222,99999999' 
TABS,ioos:station:wmo:42045:1,2017-12-01T11:00:00Z,26.2168,-96.4998,2.0,131.0779614,2.998082721,-99999.0,'11133222,11111222,99999999' 
TABS,ioos:station:wmo:42045:1,2017-12-01T11:30:00Z,26.2168,-96.4998,2.0,128.0927482,2.998683044,-99999.0,'11133222,11111222,99999999' 
TABS,ioos:station:wmo:42045:1,2017-12-01T12:00:00Z,26.2168,-96.4998,2.0,131.0779614,2.998082721,-99999.0,'11133222,11111222,99999999' 
TABS,ioos:station:wmo:42045:1,2017-12-01T12:30:00Z,26.2168,-96.4998,2.0,131.0779614,2.998082721,-99999.0,'11133222,11111222,99999999' 
TABS,ioos:station:wmo:42045:1,2017-12-01T13:00:00Z,26.2168,-96.4998,2.0,131.0779614,2.998082721,-99999.0,'11133222,11111222,99999999' 
TABS,ioos:station:wmo:42045:1,2017-12-01T13:30:00Z,26.2168,-96.4998,2.0,131.0779614,2.998082721,-99999.0,'11133222,11111222,99999999' 
TABS,ioos:station:wmo:42045:1,2017-12-01T14:00:00Z,26.2168,-96.4998,2.0,131.0779614,2.998082721,-99999.0,'11133222,11111222,99999999' 
TABS,ioos:station:wmo:42045:1,2017-12-01T14:30:00Z,26.2168,-96.4998,2.0,131.0779614,2.998082721,-99999.0,'11133222,11111222,99999999' 
TABS,ioos:station:wmo:42045:1,2017-12-01T15:00:00Z,26.2168,-96.4998,2.0,154.9714239,3.001882743,-99999.0,'11133222,11111222,99999999' 
TABS,ioos:station:wmo:42045:1,2017-12-01T15:30:00Z,26.2168,-96.4998,2.0,131.0779614,2.998082721,-99999.0,'11133222,11111222,99999999' 
TABS,ioos:station:wmo:42045:1,2017-12-01T16:00:00Z,26.2168,-96.4998,2.0,131.0779614,2.998082721,-99999.0,'11133222,11111222,99999999' 
TABS,ioos:station:wmo:42045:1,2017-12-01T16:30:00Z,26.2168,-96.4998,2.0,131.0779614,2.998082721,-99999.0,'11133222,11111222,99999999' 
TABS,ioos:station:wmo:42045:1,2017-12-01T17:00:00Z,26.2168,-96.4998,2.0,131.0779614,2.998082721,-99999.0,'11133222,11111222,99999999' 
TABS,ioos:station:wmo:42045:1,2017-12-01T17:30:00Z,26.2168,-96.4998,2.0,131.0779614,2.998082721,-99999.0,'11133222,11111222,99999999' 
TABS,ioos:station:wmo:42045:1,2017-12-01T18:00:00Z,26.2168,-96.4998,2.0,131.0779614,2.998082721,-99999.0,'11133222,11111222,99999999' 
TABS,ioos:station:wmo:42045:1,2017-12-01T18:30:00Z,26.2168,-96.4998,2.0,131.0779614,2.998082721,-99999.0,'11133222,11111222,99999999' 
TABS,ioos:station:wmo:42045:1,2017-12-01T19:00:00Z,26.2168,-96.4998,2.0,131.0779614,2.998082721,-99999.0,'11133222,11111222,99999999' 
TABS,ioos:station:wmo:42045:1,2017-12-01T19:30:00Z,26.2168,-96.4998,2.0,136.8910451,2.999766658,-99999.0,'11133222,11111222,99999999' 
TABS,ioos:station:wmo:42045:1,2017-12-01T20:00:00Z,26.2168,-96.4998,2.0,131.0779614,2.998082721,-99999.0,'11133222,11111222,99999999' 
TABS,ioos:station:wmo:42045:1,2017-12-01T20:30:00Z,26.2168,-96.4998,2.0,136.8910451,2.999766658,-99999.0,'11133222,11111222,99999999' 
TABS,ioos:station:wmo:42045:1,2017-12-01T21:00:00Z,26.2168,-96.4998,2.0,131.0779614,2.998082721,-99999.0,'11133222,11111222,99999999' 
TABS,ioos:station:wmo:42045:1,2017-12-01T21:30:00Z,26.2168,-96.4998,2.0,162.1319288,16.29601485,-99999.0,'11111222,11111222,99999999' 
TABS,ioos:station:wmo:42045:1,2017-12-01T22:00:00Z,26.2168,-96.4998,2.0,169.32458,16.46495976,-99999.0,'11111222,11111222,99999999' 
TABS,ioos:station:wmo:42045:1,2017-12-01T22:30:00Z,26.2168,-96.4998,2.0,161.7720784,14.86596448,-99999.0,'11111222,11111222,99999999' 
TABS,ioos:station:wmo:42045:1,2017-12-01T23:00:00Z,26.2168,-96.4998,2.0,162.0116659,17.03254532,-99999.0,'11111222,11111222,99999999' 
TABS,ioos:station:wmo:42045:1,2017-12-01T23:30:00Z,26.2168,-96.4998,2.0,162.9651188,17.3407843,-99999.0,'11111222,11111222,99999999' 
TABS,ioos:station:wmo:42045:1,2017-12-02T00:00:00Z,26.2168,-96.4998,2.0,160.0800632,6.956184299,-99999.0,'11133222,11111222,99999999' 
TABS,ioos:station:wmo:42045:1,2017-12-02T00:30:00Z,26.2168,-96.4998,2.0,151.9628594,10.44588436,-99999.0,'11111222,11111222,99999999' 
TABS,ioos:station:wmo:42045:1,2017-12-02T01:00:00Z,26.2168,-96.4998,2.0,146.5033664,10.67249268,-99999.0,'11111222,11111222,99999999' 
TABS,ioos:station:wmo:42045:1,2017-12-02T01:30:00Z,26.2168,-96.4998,2.0,160.6420604,11.97709898,-99999.0,'11111222,11111222,99999999' 
TABS,ioos:station:wmo:42045:1,2017-12-02T02:00:00Z,26.2168,-96.4998,2.0,158.0640246,11.08232828,-99999.0,'11111222,11111222,99999999' 
TABS,ioos:station:wmo:42045:1,2017-12-02T02:30:00Z,26.2168,-96.4998,2.0,153.5130732,9.820819721,-99999.0,'11133222,11111222,99999999' 
TABS,ioos:station:wmo:42045:1,2017-12-02T03:00:00Z,26.2168,-96.4998,2.0,158.3308553,12.05165964,-99999.0,'11111222,11111222,99999999' 
TABS,ioos:station:wmo:42045:1,2017-12-02T03:30:00Z,26.2168,-96.4998,2.0,164.1665385,9.126253339,-99999.0,'11133222,11111222,99999999' 
TABS,ioos:station:wmo:42045:1,2017-12-02T04:00:00Z,26.2168,-96.4998,2.0,167.013212,10.72429951,-99999.0,'11111222,11111222,99999999' 
TABS,ioos:station:wmo:42045:1,2017-12-02T04:30:00Z,26.2168,-96.4998,2.0,165.2207061,10.66276231,-99999.0,'11111222,11111222,99999999' 
TABS,ioos:station:wmo:42045:1,2017-12-02T05:00:00Z,26.2168,-96.4998,2.0,169.6511297,9.352133446,-99999.0,'11133222,11111222,99999999' 
TABS,ioos:station:wmo:42045:1,2017-12-02T05:30:00Z,26.2168,-96.4998,2.0,170.7352872,8.571814277,-99999.0,'11133222,11111222,99999999' 
TABS,ioos:station:wmo:42045:1,2017-12-02T06:00:00Z,26.2168,-96.4998,2.0,171.9062119,8.878434547,-99999.0,'11133222,11111222,99999999' 
TABS,ioos:station:wmo:42045:1,2017-12-02T06:30:00Z,26.2168,-96.4998,2.0,184.7775742,10.08504338,-99999.0,'11111222,11111222,99999999' 
TABS,ioos:station:wmo:42045:1,2017-12-02T07:00:00Z,26.2168,-96.4998,2.0,176.9533157,10.72515734,-99999.0,'11111222,11111222,99999999' 
TABS,ioos:station:wmo:42045:1,2017-12-02T07:30:00Z,26.2168,-96.4998,2.0,189.6373051,4.83828482,-99999.0,'11133222,11111222,99999999' 
TABS,ioos:station:wmo:42045:1,2017-12-02T08:00:00Z,26.2168,-96.4998,2.0,183.8983539,6.765655918,-99999.0,'11133222,11111222,99999999' 
TABS,ioos:station:wmo:42045:1,2017-12-02T08:30:00Z,26.2168,-96.4998,2.0,131.0779614,2.998082721,-99999.0,'11133222,11111222,99999999' 
TABS,ioos:station:wmo:42045:1,2017-12-02T09:00:00Z,26.2168,-96.4998,2.0,166.3352211,6.730505182,-99999.0,'11133222,11111222,99999999' 
TABS,ioos:station:wmo:42045:1,2017-12-02T09:30:00Z,26.2168,-96.4998,2.0,171.5091548,4.944188508,-99999.0,'11133222,11111222,99999999' 
TABS,ioos:station:wmo:42045:1,2017-12-02T10:00:00Z,26.2168,-96.4998,2.0,177.1059893,4.555809478,-99999.0,'11133222,11111222,99999999' 
TABS,ioos:station:wmo:42045:1,2017-12-02T10:30:00Z,26.2168,-96.4998,2.0,161.6349274,5.173490118,-99999.0,'11133222,11111222,99999999' 
TABS,ioos:station:wmo:42045:1,2017-12-02T11:00:00Z,26.2168,-96.4998,2.0,172.215647,6.792591553,-99999.0,'11133222,11111222,99999999' 
TABS,ioos:station:wmo:42045:1,2017-12-02T11:30:00Z,26.2168,-96.4998,2.0,131.0779614,2.998082721,-99999.0,'11133222,11111222,99999999' 
TABS,ioos:station:wmo:42045:1,2017-12-02T12:00:00Z,26.2168,-96.4998,2.0,131.0779614,2.998082721,-99999.0,'11133222,11111222,99999999' 
TABS,ioos:station:wmo:42045:1,2017-12-02T12:30:00Z,26.2168,-96.4998,2.0,131.0779614,2.998082721,-99999.0,'11133222,11111222,99999999' 
TABS,ioos:station:wmo:42045:1,2017-12-02T13:00:00Z,26.2168,-96.4998,2.0,131.0779614,2.998082721,-99999.0,'11133222,11111222,99999999' 
TABS,ioos:station:wmo:42045:1,2017-12-02T13:30:00Z,26.2168,-96.4998,2.0,131.0779614,2.998082721,-99999.0,'11133222,11111222,99999999' 
TABS,ioos:station:wmo:42045:1,2017-12-02T14:00:00Z,26.2168,-96.4998,2.0,137.0308043,1.995294464,-99999.0,'11133222,11111222,99999999' 
TABS,ioos:station:wmo:42045:1,2017-12-02T14:30:00Z,26.2168,-96.4998,2.0,131.0779614,2.998082721,-99999.0,'11133222,11111222,99999999' 
TABS,ioos:station:wmo:42045:1,2017-12-02T15:00:00Z,26.2168,-96.4998,2.0,131.0779614,2.998082721,-99999.0,'11133222,11111222,99999999' 
TABS,ioos:station:wmo:42045:1,2017-12-02T15:30:00Z,26.2168,-96.4998,2.0,131.0779614,2.998082721,-99999.0,'11133222,11111222,99999999' 
TABS,ioos:station:wmo:42045:1,2017-12-02T16:00:00Z,26.2168,-96.4998,2.0,131.0779614,2.998082721,-99999.0,'11133222,11111222,99999999' 
TABS,ioos:station:wmo:42045:1,2017-12-02T16:30:00Z,26.2168,-96.4998,2.0,319.9992683,3.002482306,-99999.0,'11133222,11111222,99999999' 
TABS,ioos:station:wmo:42045:1,2017-12-02T17:00:00Z,26.2168,-96.4998,2.0,131.0779614,2.998082721,-99999.0,'11133222,11111222,99999999' 
TABS,ioos:station:wmo:42045:1,2017-12-02T17:30:00Z,26.2168,-96.4998,2.0,131.0779614,2.998082721,-99999.0,'11133222,11111222,99999999' 
TABS,ioos:station:wmo:42045:1,2017-12-02T18:00:00Z,26.2168,-96.4998,2.0,131.0779614,2.998082721,-99999.0,'11133222,11111222,99999999' 
TABS,ioos:station:wmo:42045:1,2017-12-02T18:30:00Z,26.2168,-96.4998,2.0,131.0779614,2.998082721,-99999.0,'11133222,11111222,99999999' 
TABS,ioos:station:wmo:42045:1,2017-12-02T19:00:00Z,26.2168,-96.4998,2.0,131.0779614,2.998082721,-99999.0,'11133222,11111222,99999999' 
TABS,ioos:station:wmo:42045:1,2017-12-02T19:30:00Z,26.2168,-96.4998,2.0,131.0779614,2.998082721,-99999.0,'11133222,11111222,99999999' 
TABS,ioos:station:wmo:42045:1,2017-12-02T20:00:00Z,26.2168,-96.4998,2.0,131.0779614,2.998082721,-99999.0,'11133222,11111222,99999999' 
TABS,ioos:station:wmo:42045:1,2017-12-02T20:30:00Z,26.2168,-96.4998,2.0,131.0779614,2.998082721,-99999.0,'11133222,11111222,99999999' 
TABS,ioos:station:wmo:42045:1,2017-12-02T21:00:00Z,26.2168,-96.4998,2.0,131.0779614,2.998082721,-99999.0,'11133222,11111222,99999999' 
TABS,ioos:station:wmo:42045:1,2017-12-02T21:30:00Z,26.2168,-96.4998,2.0,71.96928967,7.172224202,-99999.0,'11133222,11111222,99999999' 
TABS,ioos:station:wmo:42045:1,2017-12-02T22:00:00Z,26.2168,-96.4998,2.0,62.1303667,6.481805304,-99999.0,'11133222,11111222,99999999' 
TABS,ioos:station:wmo:42045:1,2017-12-02T22:30:00Z,26.2168,-96.4998,2.0,70.5227683,9.387193404,-99999.0,'11133222,11111222,99999999' 
TABS,ioos:station:wmo:42045:1,2017-12-02T23:00:00Z,26.2168,-96.4998,2.0,89.42069067,9.890505548,-99999.0,'11133222,11111222,99999999' 
TABS,ioos:station:wmo:42045:1,2017-12-02T23:30:00Z,26.2168,-96.4998,2.0,76.65610748,9.835537606,-99999.0,'11133222,11111222,99999999' 
TABS,ioos:station:wmo:42045:1,2017-12-03T00:00:00Z,26.2168,-96.4998,2.0,79.51347957,8.461323774,-99999.0,'11133222,11111222,99999999' 
TABS,ioos:station:wmo:42045:1,2017-12-03T00:30:00Z,26.2168,-96.4998,2.0,89.93283046,8.530005862,-99999.0,'11133222,11111222,99999999' 
TABS,ioos:station:wmo:42045:1,2017-12-03T01:00:00Z,26.2168,-96.4998,2.0,101.2946231,7.352394168,-99999.0,'11133222,11111222,99999999' 
TABS,ioos:station:wmo:42045:1,2017-12-03T01:30:00Z,26.2168,-96.4998,2.0,118.7725717,5.921030316,-99999.0,'11133222,11111222,99999999' 
TABS,ioos:station:wmo:42045:1,2017-12-03T02:00:00Z,26.2168,-96.4998,2.0,110.9403742,5.931778823,-99999.0,'11133222,11111222,99999999' 
TABS,ioos:station:wmo:42045:1,2017-12-03T02:30:00Z,26.2168,-96.4998,2.0,106.2475936,7.291200176,-99999.0,'11133222,11111222,99999999' 
TABS,ioos:station:wmo:42045:1,2017-12-03T03:00:00Z,26.2168,-96.4998,2.0,108.6333887,5.477097772,-99999.0,'11133222,11111222,99999999' 
TABS,ioos:station:wmo:42045:1,2017-12-03T03:30:00Z,26.2168,-96.4998,2.0,99.13712965,4.345135211,-99999.0,'11133222,11111222,99999999' 
TABS,ioos:station:wmo:42045:1,2017-12-03T04:00:00Z,26.2168,-96.4998,2.0,105.8901073,5.697718842,-99999.0,'11133222,11111222,99999999' 
TABS,ioos:station:wmo:42045:1,2017-12-03T04:30:00Z,26.2168,-96.4998,2.0,114.3936823,5.665792089,-99999.0,'11133222,11111222,99999999' 
TABS,ioos:station:wmo:42045:1,2017-12-03T05:00:00Z,26.2168,-96.4998,2.0,108.3593178,4.794017105,-99999.0,'11133222,11111222,99999999' 
TABS,ioos:station:wmo:42045:1,2017-12-03T05:30:00Z,26.2168,-96.4998,2.0,119.5922272,4.6575208,-99999.0,'11133222,11111222,99999999' 
TABS,ioos:station:wmo:42045:1,2017-12-03T06:00:00Z,26.2168,-96.4998,2.0,131.0779614,2.998082721,-99999.0,'11133222,11111222,99999999' 
TABS,ioos:station:wmo:42045:1,2017-12-03T06:30:00Z,26.2168,-96.4998,2.0,139.0764334,6.365924913,-99999.0,'11133222,11111222,99999999' 
TABS,ioos:station:wmo:42045:1,2017-12-03T07:00:00Z,26.2168,-96.4998,2.0,138.7584417,4.85412196,-99999.0,'11133222,11111222,99999999' 
TABS,ioos:station:wmo:42045:1,2017-12-03T07:30:00Z,26.2168,-96.4998,2.0,137.8368754,5.571759148,-99999.0,'11133222,11111222,99999999' 
TABS,ioos:station:wmo:42045:1,2017-12-03T08:00:00Z,26.2168,-96.4998,2.0,136.9644106,5.363021536,-99999.0,'11133222,11111222,99999999' 
TABS,ioos:station:wmo:42045:1,2017-12-03T08:30:00Z,26.2168,-96.4998,2.0,137.0912222,5.037955935,-99999.0,'11133222,11111222,99999999' 
TABS,ioos:station:wmo:42045:1,2017-12-03T09:00:00Z,26.2168,-96.4998,2.0,131.0779614,2.998082721,-99999.0,'11133222,11111222,99999999' 
TABS,ioos:station:wmo:42045:1,2017-12-03T09:30:00Z,26.2168,-96.4998,2.0,129.4891928,4.638846839,-99999.0,'11133222,11111222,99999999' 
TABS,ioos:station:wmo:42045:1,2017-12-03T10:00:00Z,26.2168,-96.4998,2.0,138.5807764,5.547476904,-99999.0,'11133222,11111222,99999999' 
TABS,ioos:station:wmo:42045:1,2017-12-03T10:30:00Z,26.2168,-96.4998,2.0,125.6044507,4.981214711,-99999.0,'11133222,11111222,99999999' 
TABS,ioos:station:wmo:42045:1,2017-12-03T11:00:00Z,26.2168,-96.4998,2.0,142.2059349,4.340564479,-99999.0,'11133222,11111222,99999999' 
TABS,ioos:station:wmo:42045:1,2017-12-03T11:30:00Z,26.2168,-96.4998,2.0,131.0779614,2.998082721,-99999.0,'11133222,11111222,99999999' 
TABS,ioos:station:wmo:42045:1,2017-12-03T12:00:00Z,26.2168,-96.4998,2.0,131.0779614,2.998082721,-99999.0,'11133222,11111222,99999999' 
TABS,ioos:station:wmo:42045:1,2017-12-03T12:30:00Z,26.2168,-96.4998,2.0,131.0779614,2.998082721,-99999.0,'11133222,11111222,99999999' 
TABS,ioos:station:wmo:42045:1,2017-12-03T13:00:00Z,26.2168,-96.4998,2.0,131.0779614,2.998082721,-99999.0,'11133222,11111222,99999999' 
TABS,ioos:station:wmo:42045:1,2017-12-03T13:30:00Z,26.2168,-96.4998,2.0,130.9431664,1.999049774,-99999.0,'11133222,11111222,99999999' 
TABS,ioos:station:wmo:42045:1,2017-12-03T14:00:00Z,26.2168,-96.4998,2.0,131.0779614,2.998082721,-99999.0,'11133222,11111222,99999999' 
TABS,ioos:station:wmo:42045:1,2017-12-03T14:30:00Z,26.2168,-96.4998,2.0,226.8908346,2.999766658,-99999.0,'11133222,11111222,99999999' 
TABS,ioos:station:wmo:42045:1,2017-12-03T15:00:00Z,26.2168,-96.4998,2.0,131.0779614,2.998082721,-99999.0,'11133222,11111222,99999999' 
TABS,ioos:station:wmo:42045:1,2017-12-03T15:30:00Z,26.2168,-96.4998,2.0,131.0779614,2.998082721,-99999.0,'11133222,11111222,99999999' 
TABS,ioos:station:wmo:42045:1,2017-12-03T16:00:00Z,26.2168,-96.4998,2.0,131.0779614,2.998082721,-99999.0,'11133222,11111222,99999999' 
TABS,ioos:station:wmo:42045:1,2017-12-03T16:30:00Z,26.2168,-96.4998,2.0,131.0779614,2.998082721,-99999.0,'11133222,11111222,99999999' 
TABS,ioos:station:wmo:42045:1,2017-12-03T17:00:00Z,26.2168,-96.4998,2.0,131.0779614,2.998082721,-99999.0,'11133222,11111222,99999999' 
TABS,ioos:station:wmo:42045:1,2017-12-03T17:30:00Z,26.2168,-96.4998,2.0,87.90707059,6.024018592,-99999.0,'11133222,11111222,99999999' 
TABS,ioos:station:wmo:42045:1,2017-12-03T18:00:00Z,26.2168,-96.4998,2.0,75.02715925,6.231572835,-99999.0,'11133222,11111222,99999999' 
TABS,ioos:station:wmo:42045:1,2017-12-03T18:30:00Z,26.2168,-96.4998,2.0,62.92970288,6.592184767,-99999.0,'11133222,11111222,99999999' 
TABS,ioos:station:wmo:42045:1,2017-12-03T19:00:00Z,26.2168,-96.4998,2.0,131.0779614,2.998082721,-99999.0,'11133222,11111222,99999999' 
TABS,ioos:station:wmo:42045:1,2017-12-03T19:30:00Z,26.2168,-96.4998,2.0,131.0779614,2.998082721,-99999.0,'11133222,11111222,99999999' 
TABS,ioos:station:wmo:42045:1,2017-12-03T20:00:00Z,26.2168,-96.4998,2.0,131.0779614,2.998082721,-99999.0,'11133222,11111222,99999999' 
TABS,ioos:station:wmo:42045:1,2017-12-03T20:30:00Z,26.2168,-96.4998,2.0,131.0779614,2.998082721,-99999.0,'11133222,11111222,99999999' 
TABS,ioos:station:wmo:42045:1,2017-12-03T21:00:00Z,26.2168,-96.4998,2.0,131.0779614,2.998082721,-99999.0,'11133222,11111222,99999999' 
TABS,ioos:station:wmo:42045:1,2017-12-03T21:30:00Z,26.2168,-96.4998,2.0,131.0779614,2.998082721,-99999.0,'11133222,11111222,99999999' 
TABS,ioos:station:wmo:42045:1,2017-12-03T22:00:00Z,26.2168,-96.4998,2.0,131.0779614,2.998082721,-99999.0,'11133222,11111222,99999999' 
TABS,ioos:station:wmo:42045:1,2017-12-03T22:30:00Z,26.2168,-96.4998,2.0,131.0779614,2.998082721,-99999.0,'11133222,11111222,99999999' 
TABS,ioos:station:wmo:42045:1,2017-12-03T23:00:00Z,26.2168,-96.4998,2.0,83.96531812,12.84116038,-99999.0,'11111222,11111222,99999999' 
TABS,ioos:station:wmo:42045:1,2017-12-03T23:30:00Z,26.2168,-96.4998,2.0,95.15773917,9.900085858,-99999.0,'11133222,11111222,99999999' 
TABS,ioos:station:wmo:42045:1,2017-12-04T00:00:00Z,26.2168,-96.4998,2.0,99.05295161,6.673125205,-99999.0,'11133222,11111222,99999999' 
TABS,ioos:station:wmo:42045:1,2017-12-04T00:30:00Z,26.2168,-96.4998,2.0,111.4930244,9.661868349,-99999.0,'11133222,11111222,99999999' 
TABS,ioos:station:wmo:42045:1,2017-12-04T01:00:00Z,26.2168,-96.4998,2.0,115.3260662,9.51445742,-99999.0,'11133222,11111222,99999999' 
TABS,ioos:station:wmo:42045:1,2017-12-04T01:30:00Z,26.2168,-96.4998,2.0,111.8968057,7.802928937,-99999.0,'11133222,11111222,99999999' 
TABS,ioos:station:wmo:42045:1,2017-12-04T02:00:00Z,26.2168,-96.4998,2.0,122.4922561,6.236192749,-99999.0,'11133222,11111222,99999999' 
TABS,ioos:station:wmo:42045:1,2017-12-04T02:30:00Z,26.2168,-96.4998,2.0,112.9384258,6.363175308,-99999.0,'11133222,11111222,99999999' 
TABS,ioos:station:wmo:42045:1,2017-12-04T03:00:00Z,26.2168,-96.4998,2.0,126.5965433,6.290071542,-99999.0,'11133222,11111222,99999999' 
TABS,ioos:station:wmo:42045:1,2017-12-04T03:30:00Z,26.2168,-96.4998,2.0,123.108327,7.103302049,-99999.0,'11133222,11111222,99999999' 
TABS,ioos:station:wmo:42045:1,2017-12-04T04:00:00Z,26.2168,-96.4998,2.0,131.781841,7.053906719,-99999.0,'11133222,11111222,99999999' 
TABS,ioos:station:wmo:42045:1,2017-12-04T04:30:00Z,26.2168,-96.4998,2.0,116.5249781,6.404100249,-99999.0,'11133222,11111222,99999999' 
TABS,ioos:station:wmo:42045:1,2017-12-04T05:00:00Z,26.2168,-96.4998,2.0,139.0500937,5.70646125,-99999.0,'11133222,11111222,99999999' 
TABS,ioos:station:wmo:42045:1,2017-12-04T05:30:00Z,26.2168,-96.4998,2.0,111.9268232,5.088064465,-99999.0,'11133222,11111222,99999999' 
TABS,ioos:station:wmo:42045:1,2017-12-04T06:00:00Z,26.2168,-96.4998,2.0,155.9449692,3.778107992,-99999.0,'11133222,11111222,99999999' 
TABS,ioos:station:wmo:42045:1,2017-12-04T06:30:00Z,26.2168,-96.4998,2.0,147.8569829,4.417023885,-99999.0,'11133222,11111222,99999999' 
TABS,ioos:station:wmo:42045:1,2017-12-04T07:00:00Z,26.2168,-96.4998,2.0,142.5640061,2.632128416,-99999.0,'11133222,11111222,99999999' 
TABS,ioos:station:wmo:42045:1,2017-12-04T07:30:00Z,26.2168,-96.4998,2.0,125.3293992,3.199156139,-99999.0,'11133222,11111222,99999999' 
TABS,ioos:station:wmo:42045:1,2017-12-04T08:00:00Z,26.2168,-96.4998,2.0,114.9497048,4.124948485,-99999.0,'11133222,11111222,99999999' 
TABS,ioos:station:wmo:42045:1,2017-12-04T08:30:00Z,26.2168,-96.4998,2.0,117.8972058,4.039430653,-99999.0,'11133222,11111222,99999999' 
TABS,ioos:station:wmo:42045:1,2017-12-04T09:00:00Z,26.2168,-96.4998,2.0,114.9848203,3.243532025,-99999.0,'11133222,11111222,99999999' 
TABS,ioos:station:wmo:42045:1,2017-12-04T09:30:00Z,26.2168,-96.4998,2.0,133.9987136,3.642155955,-99999.0,'11133222,11111222,99999999' 
TABS,ioos:station:wmo:42045:1,2017-12-04T10:00:00Z,26.2168,-96.4998,2.0,110.3560519,3.018509566,-99999.0,'11133222,11111222,99999999' 
TABS,ioos:station:wmo:42045:1,2017-12-04T10:30:00Z,26.2168,-96.4998,2.0,93.39836348,4.217416271,-99999.0,'11133222,11111222,99999999' 
TABS,ioos:station:wmo:42045:1,2017-12-04T11:00:00Z,26.2168,-96.4998,2.0,123.2130329,5.33085359,-99999.0,'11133222,11111222,99999999' 
TABS,ioos:station:wmo:42045:1,2017-12-04T11:30:00Z,26.2168,-96.4998,2.0,131.0779614,2.998082721,-99999.0,'11133222,11111222,99999999' 
TABS,ioos:station:wmo:42045:1,2017-12-04T12:00:00Z,26.2168,-96.4998,2.0,131.0779614,2.998082721,-99999.0,'11133222,11111222,99999999' 
TABS,ioos:station:wmo:42045:1,2017-12-04T12:30:00Z,26.2168,-96.4998,2.0,131.0779614,2.998082721,-99999.0,'11133222,11111222,99999999' 
TABS,ioos:station:wmo:42045:1,2017-12-04T13:00:00Z,26.2168,-96.4998,2.0,131.0779614,2.998082721,-99999.0,'11133222,11111222,99999999' 
TABS,ioos:station:wmo:42045:1,2017-12-04T13:30:00Z,26.2168,-96.4998,2.0,347.0772973,2.995880505,-99999.0,'11133222,11111222,99999999' 
TABS,ioos:station:wmo:42045:1,2017-12-04T14:00:00Z,26.2168,-96.4998,2.0,131.0779614,2.998082721,-99999.0,'11133222,11111222,99999999' 
TABS,ioos:station:wmo:42045:1,2017-12-04T14:30:00Z,26.2168,-96.4998,2.0,131.0779614,2.998082721,-99999.0,'11133222,11111222,99999999' 
TABS,ioos:station:wmo:42045:1,2017-12-04T15:00:00Z,26.2168,-96.4998,2.0,131.0779614,2.998082721,-99999.0,'11133222,11111222,99999999' 
TABS,ioos:station:wmo:42045:1,2017-12-04T15:30:00Z,26.2168,-96.4998,2.0,131.0779614,2.998082721,-99999.0,'11133222,11111222,99999999' 